• In Austria
  • List of Countries
  • For 7 days
  • Water Temperature
  • Satellite Maps
  • Weather Map
  • News
  • Weather Widgets
  • user-avatar
    Login

    Hourly Weather Andora

    Today, 17 December, Sunday

    Time Temperature Precipitation Wind Pressure Humidity
    00:00 -9°C° 0 mm 3 mps 624 mmHg 76%
    01:00 -9°C° 0 mm 3 mps 624 mmHg 76%
    02:00 -9°C° 0 mm 3 mps 625 mmHg 76%
    03:00 -9°C° 0 mm 3 mps 625 mmHg 75%
    04:00 -9°C° 0 mm 3 mps 625 mmHg 75%
    05:00 -9°C° 0 mm 3 mps 625 mmHg 74%
    06:00 -10°C° 0 mm 4 mps 625 mmHg 74%
    07:00 -10°C° 0 mm 4 mps 626 mmHg 71%
    08:00 -8°C° 0 mm 3 mps 626 mmHg 68%
    09:00 -7°C° 0 mm 3 mps 627 mmHg 65%
    10:00 -5°C° 0 mm 3 mps 628 mmHg 62%
    11:00 -4°C° 0 mm 4 mps 628 mmHg 59%
    12:00 -2°C° 0 mm 3 mps 628 mmHg 60%
    13:00 -2°C° 0 mm 3 mps 628 mmHg 62%
    14:00 -2°C° 0 mm 3 mps 628 mmHg 63%
    15:00 -2°C° 0 mm 3 mps 628 mmHg 65%
    16:00 -4°C° 0 mm 3 mps 628 mmHg 69%
    17:00 -5°C° 0 mm 3 mps 628 mmHg 73%
    18:00 -6°C° 0 mm 3 mps 628 mmHg 77%
    19:00 -6°C° 0 mm 3 mps 628 mmHg 78%
    20:00 -6°C° 0 mm 3 mps 629 mmHg 79%
    21:00 -5°C° 0 mm 3 mps 629 mmHg 80%
    22:00 -5°C° 0 mm 3 mps 629 mmHg 80%
    23:00 -5°C° 0 mm 3 mps 629 mmHg 80%

    Tomorrow, 18 December, Monday

    Time Temperature Precipitation Wind Pressure Humidity
    00:00 -5°C° 0 mm 3 mps 629 mmHg 81%
    01:00 -6°C° 0 mm 3 mps 629 mmHg 82%
    02:00 -6°C° 0 mm 3 mps 629 mmHg 82%
    03:00 -5°C° 0 mm 2 mps 628 mmHg 83%
    04:00 -6°C° 0 mm 3 mps 628 mmHg 83%
    05:00 -6°C° 0 mm 3 mps 628 mmHg 82%
    06:00 -5°C° 0 mm 3 mps 629 mmHg 82%
    07:00 -4°C° 0 mm 3 mps 629 mmHg 79%
    08:00 -3°C° 0 mm 2 mps 629 mmHg 77%
    09:00 -2°C° 0 mm 2 mps 629 mmHg 75%
    10:00 -1°C° 0.2 mm 2 mps 629 mmHg 75%
    11:00 0°C° 0.2 mm 3 mps 629 mmHg 75%
    12:00 0°C° 0.2 mm 3 mps 629 mmHg 75%
    13:00 0°C° 0.8 mm 3 mps 628 mmHg 77%
    14:00 +1°C° 0.8 mm 2 mps 627 mmHg 80%
    15:00 +1°C° 0.8 mm 2 mps 627 mmHg 82%
    16:00 0°C° 1 mm 3 mps 626 mmHg 84%
    17:00 0°C° 1 mm 3 mps 626 mmHg 87%
    18:00 -1°C° 1 mm 3 mps 625 mmHg 89%
    19:00 -1°C° 0.8 mm 3 mps 626 mmHg 89%
    20:00 -1°C° 0.8 mm 3 mps 626 mmHg 89%
    21:00 -2°C° 0.8 mm 4 mps 626 mmHg 90%
    22:00 -1°C° 0.2 mm 3 mps 626 mmHg 90%
    23:00 -2°C° 0.2 mm 3 mps 626 mmHg 90%

    Day after tomorrow, 19 December, Tuesday

    Time Temperature Precipitation Wind Pressure Humidity
    00:00 -4°C° 0.2 mm 3 mps 626 mmHg 90%
    01:00 -5°C° 0 mm 3 mps 626 mmHg 90%
    02:00 -5°C° 0 mm 3 mps 626 mmHg 91%
    03:00 -6°C° 0 mm 3 mps 626 mmHg 91%
    04:00 -7°C° 0 mm 3 mps 627 mmHg 90%
    05:00 -7°C° 0 mm 3 mps 627 mmHg 89%
    06:00 -8°C° 0 mm 3 mps 627 mmHg 89%
    07:00 -6°C° 0 mm 2 mps 628 mmHg 85%
    08:00 -6°C° 0 mm 2 mps 628 mmHg 80%
    09:00 -5°C° 0 mm 2 mps 629 mmHg 76%
    10:00 -3°C° 0 mm 2 mps 630 mmHg 72%
    11:00 -2°C° 0 mm 2 mps 630 mmHg 68%
    12:00 +1°C° 0 mm 2 mps 631 mmHg 64%
    13:00 -1°C° 0 mm 2 mps 631 mmHg 67%
    14:00 -1°C° 0 mm 2 mps 630 mmHg 69%
    15:00 -1°C° 0 mm 2 mps 630 mmHg 71%
    16:00 -3°C° 0 mm 2 mps 630 mmHg 76%
    17:00 -5°C° 0 mm 2 mps 630 mmHg 81%
    18:00 -7°C° 0 mm 2 mps 629 mmHg 87%
    19:00 -7°C° 0 mm 2 mps 630 mmHg 85%
    20:00 -7°C° 0 mm 2 mps 630 mmHg 84%
    21:00 -7°C° 0 mm 2 mps 630 mmHg 82%
    22:00 -7°C° 0 mm 2 mps 630 mmHg 80%
    23:00 -7°C° 0 mm 2 mps 630 mmHg 78%

    20 December, Wednesday

    Time Temperature Precipitation Wind Pressure Humidity
    00:00 -7°C° 0 mm 2 mps 630 mmHg 76%
    01:00 -7°C° 0 mm 2 mps 630 mmHg 75%
    02:00 -7°C° 0 mm 2 mps 630 mmHg 73%
    03:00 -7°C° 0 mm 2 mps 630 mmHg 71%
    04:00 -7°C° 0 mm 2 mps 630 mmHg 71%
    05:00 -7°C° 0 mm 2 mps 630 mmHg 70%
    06:00 -6°C° 0 mm 2 mps 630 mmHg 70%
    07:00 -5°C° 0 mm 2 mps 630 mmHg 69%
    08:00 -4°C° 0 mm 2 mps 631 mmHg 67%
    09:00 -3°C° 0 mm 2 mps 631 mmHg 66%
    10:00 -1°C° 0 mm 2 mps 632 mmHg 65%
    11:00 0°C° 0 mm 3 mps 632 mmHg 65%
    12:00 +2°C° 0 mm 3 mps 633 mmHg 64%
    13:00 +1°C° 0 mm 3 mps 632 mmHg 67%
    14:00 +1°C° 0 mm 3 mps 632 mmHg 69%
    15:00 +1°C° 0 mm 3 mps 632 mmHg 72%
    16:00 -1°C° 0 mm 3 mps 632 mmHg 76%
    17:00 -2°C° 0 mm 2 mps 631 mmHg 81%
    18:00 -4°C° 0 mm 2 mps 631 mmHg 85%
    19:00 -4°C° 0 mm 2 mps 631 mmHg 84%
    20:00 -4°C° 0 mm 2 mps 632 mmHg 84%
    21:00 -4°C° 0 mm 2 mps 632 mmHg 84%
    22:00 -4°C° 0 mm 2 mps 632 mmHg 83%
    23:00 -4°C° 0 mm 2 mps 632 mmHg 83%

    21 December, Thursday

    Time Temperature Precipitation Wind Pressure Humidity
    00:00 -4°C° 0 mm 2 mps 632 mmHg 83%
    01:00 -4°C° 0 mm 2 mps 632 mmHg 83%
    02:00 -4°C° 0 mm 2 mps 632 mmHg 83%
    03:00 -4°C° 0 mm 2 mps 632 mmHg 83%
    04:00 -4°C° 0 mm 2 mps 633 mmHg 82%
    05:00 -4°C° 0 mm 2 mps 633 mmHg 81%
    06:00 -4°C° 0 mm 2 mps 633 mmHg 81%
    07:00 -3°C° 0 mm 2 mps 634 mmHg 78%
    08:00 -2°C° 0 mm 2 mps 634 mmHg 75%
    09:00 -1°C° 0 mm 2 mps 635 mmHg 72%
    10:00 +1°C° 0 mm 2 mps 635 mmHg 71%
    11:00 +2°C° 0 mm 2 mps 636 mmHg 70%
    12:00 +4°C° 0 mm 2 mps 636 mmHg 69%
    13:00 +3°C° 0 mm 2 mps 636 mmHg 70%
    14:00 +3°C° 0 mm 2 mps 635 mmHg 71%
    15:00 +3°C° 0 mm 2 mps 635 mmHg 72%
    16:00 +1°C° 0 mm 2 mps 635 mmHg 75%
    17:00 -1°C° 0 mm 2 mps 634 mmHg 77%
    18:00 -3°C° 0 mm 2 mps 634 mmHg 80%
    19:00 -3°C° 0 mm 2 mps 634 mmHg 78%
    20:00 -3°C° 0 mm 2 mps 634 mmHg 77%
    21:00 -3°C° 0 mm 2 mps 634 mmHg 76%
    22:00 -3°C° 0 mm 2 mps 634 mmHg 76%
    23:00 -3°C° 0 mm 2 mps 634 mmHg 76%

    22 December, Friday

    Time Temperature Precipitation Wind Pressure Humidity
    00:00 -3°C° 0 mm 2 mps 634 mmHg 76%
    01:00 -3°C° 0 mm 2 mps 634 mmHg 76%
    02:00 -3°C° 0 mm 2 mps 634 mmHg 77%
    03:00 -3°C° 0 mm 2 mps 634 mmHg 77%
    04:00 -4°C° 0 mm 3 mps 633 mmHg 78%
    05:00 -4°C° 0 mm 3 mps 633 mmHg 78%
    06:00 -4°C° 0 mm 3 mps 633 mmHg 79%
    07:00 -2°C° 0 mm 3 mps 634 mmHg 78%
    08:00 -1°C° 0 mm 3 mps 634 mmHg 76%
    09:00 0°C° 0 mm 3 mps 635 mmHg 75%
    10:00 +1°C° 0 mm 3 mps 635 mmHg 74%
    11:00 +2°C° 0 mm 3 mps 635 mmHg 72%
    12:00 +3°C° 0 mm 3 mps 635 mmHg 71%
    13:00 +3°C° 0 mm 3 mps 634 mmHg 72%
    14:00 +2°C° 0 mm 3 mps 634 mmHg 72%
    15:00 +2°C° 0 mm 3 mps 633 mmHg 73%
    16:00 0°C° 0 mm 3 mps 633 mmHg 77%
    17:00 -1°C° 0 mm 3 mps 632 mmHg 81%
    18:00 -4°C° 0 mm 3 mps 632 mmHg 84%
    19:00 -4°C° 0 mm 3 mps 632 mmHg 84%
    20:00 -4°C° 0 mm 3 mps 632 mmHg 84%
    21:00 -4°C° 0 mm 3 mps 632 mmHg 83%
    22:00 -5°C° 0 mm 3 mps 631 mmHg 82%
    23:00 -5°C° 0 mm 3 mps 631 mmHg 81%
    Show more